This demonstration page uses our WeatherBlox Daily Observations layout. Learn more.

Left ArrowRight Arrow

Hourly Observations for June 13, 2021

Temp ( °F °C ) Dew Point ( °F °C ) Humidity (%) Winds ( mph kmh ) Pressure ( in mb ) Visibility ( mi km ) Precip ( " mm )
12:15 am 00:15 Clear 64 18 51 10.5 62 62 ESE 8 13 30.00 1016 10 16 N/A
12:35 am 00:35 Clear 63 17.4 51 10.6 65 65 ESE 9 15 30.01 1016 10 16 N/A
12:55 am 00:55 Clear 63 17.1 51 10.8 67 67 ESE 7 11 30.01 1016 10 16 N/A
1:15 am 01:15 Clear 63 17.1 51 10.8 67 67 SE 7 11 30.02 1017 10 16 N/A
1:35 am 01:35 Clear 62 16.5 51 10.6 68 68 ESE 6 9 30.03 1017 10 16 N/A
1:55 am 01:55 Clear 61 16.1 51 10.8 71 71 ESE 5 7 30.03 1017 10 16 N/A
2:15 am 02:15 Clear 61 16.3 51 10.7 70 70 ESE 7 11 30.02 1017 10 16 N/A
2:35 am 02:35 Clear 61 16.1 52 11 72 72 ESE 6 9 30.03 1017 10 16 N/A
2:55 am 02:55 Clear 61 16.1 52 11 72 72 SE 6 9 30.03 1017 10 16 N/A
3:15 am 03:15 Clear 60 15.7 52 10.9 73 73 SSE 3 6 30.04 1017 10 16 N/A
3:35 am 03:35 Clear 61 16 52 11 72 72 SE 5 7 30.05 1018 10 16 N/A
3:55 am 03:55 Clear 60 15.5 52 11.1 75 75 SE 6 9 30.04 1017 10 16 N/A
4:15 am 04:15 Clear 60 15.7 52 11.2 75 75 SE 5 7 30.05 1018 10 16 N/A
4:35 am 04:35 Clear 58 14.7 51 10.8 78 78 ESE 6 9 30.06 1018 10 16 N/A
4:55 am 04:55 Clear 60 15.5 53 11.5 77 77 SE 5 7 30.06 1018 10 16 N/A
5:15 am 05:15 Clear 60 15.6 52 11.3 76 76 SE 3 6 30.06 1018 10 16 N/A
5:35 am 05:35 Partly Cloudy 60 15.4 53 11.5 78 78 SSE 5 7 30.08 1018 10 16 N/A
5:55 am 05:55 Clear 60 15.6 53 11.4 76 76 N N/A 30.07 1018 10 16 N/A
6:15 am 06:15 Sunny 60 15.8 53 11.6 76 76 S 5 7 30.07 1018 10 16 N/A
6:35 am 06:35 Sunny 61 16 53 11.7 76 76 S 5 7 30.07 1018 10 16 N/A
6:55 am 06:55 Sunny 63 17.1 54 12 72 72 S 7 11 30.06 1018 10 16 N/A
7:15 am 07:15 Sunny 64 17.8 55 12.5 71 71 S 5 7 30.07 1018 10 16 N/A
7:35 am 07:35 Sunny 67 19.4 55 13 67 67 S 7 11 30.05 1018 10 16 N/A
7:55 am 07:55 Sunny 69 20.6 56 13.2 63 63 S 9 15 30.04 1017 10 16 N/A
8:15 am 08:15 Sunny 72 22 56 13.3 58 58 S 13 20 30.04 1017 10 16 N/A
8:35 am 08:35 Sunny 73 22.9 57 13.7 56 56 SSE 12 19 30.04 1017 10 16 N/A
8:55 am 08:55 Sunny 75 23.7 56 13.4 53 53 SSE 13 20 30.04 1017 10 16 N/A
9:15 am 09:15 Sunny 76 24.5 57 13.9 52 52 SSE 9 15 30.04 1017 10 16 N/A
9:35 am 09:35 Sunny 77 25 56 13.4 49 49 S 12 19 30.04 1017 10 16 N/A
9:55 am 09:55 Sunny 78 25.5 56 13.3 47 47 S 13 20 30.03 1017 10 16 N/A
10:15 am 10:15 Sunny 79 26 56 13.2 45 45 S 10 17 30.03 1017 10 16 N/A
10:35 am 10:35 Sunny 80 26.5 56 13.6 45 45 S 10 17 30.02 1017 10 16 N/A
10:55 am 10:55 Sunny 80 26.8 58 14.3 46 46 S 6 9 30.01 1016 10 16 N/A
11:15 am 11:15 Sunny 81 27.4 57 13.9 44 44 S 8 13 30.01 1016 10 16 N/A
11:35 am 11:35 Sunny 82 27.8 57 13.9 42 42 SSE 7 11 30.00 1016 10 16 N/A
11:55 am 11:55 Sunny 83 28.2 57 14.1 42 42 S 9 15 30.00 1016 10 16 N/A
12:15 pm 12:15 Sunny 84 28.8 57 13.8 40 40 S 7 11 30.00 1016 10 16 N/A
12:35 pm 12:35 Sunny 84 29 58 14.4 41 41 SSE 5 7 29.98 1015 10 16 N/A
12:55 pm 12:55 Sunny 84 29.1 58 14.7 41 41 S 7 11 29.97 1015 10 16 N/A
1:15 pm 13:15 Sunny 85 29.6 59 15 41 41 SSE 6 9 29.97 1015 10 16 N/A
1:35 pm 13:35 Sunny 86 29.8 59 15 41 41 SSE 3 6 29.96 1015 10 16 N/A
1:55 pm 13:55 Sunny 86 30.2 60 15.3 40 40 N N/A 29.95 1014 10 16 N/A
2:15 pm 14:15 Sunny 87 30.7 60 15.6 40 40 SSE 5 7 29.93 1014 10 16 N/A
2:35 pm 14:35 Sunny 88 31.1 58 14.5 36 36 SSW 7 11 29.93 1013 10 16 N/A
2:55 pm 14:55 Sunny 89 31.5 58 14.7 36 36 S 8 13 29.92 1013 10 16 N/A
3:15 pm 15:15 Sunny 89 31.6 56 13.6 33 33 S 7 11 29.91 1013 10 16 N/A
3:35 pm 15:35 Sunny 89 31.8 54 12.4 30 30 SE 5 7 29.90 1013 10 16 N/A
3:55 pm 15:55 Sunny 89 31.7 56 13.6 33 33 SSE 5 7 29.90 1013 10 16 N/A
4:15 pm 16:15 Sunny 90 32.2 56 13.5 32 32 SSE 9 15 29.89 1012 10 16 N/A
4:35 pm 16:35 Sunny 90 32.2 55 12.6 30 30 ESE 10 17 29.89 1012 10 16 N/A
4:55 pm 16:55 Sunny 90 32.3 53 11.6 28 28 ESE 10 17 29.89 1012 10 16 N/A
5:15 pm 17:15 Sunny 91 32.5 53 11.6 28 28 SE 8 13 29.89 1012 10 16 N/A
5:35 pm 17:35 Sunny 91 32.5 52 11 27 27 SE 10 17 29.89 1012 10 16 N/A
5:55 pm 17:55 Sunny 90 32.3 51 10.6 26 26 SE 12 19 29.89 1012 10 16 N/A
6:15 pm 18:15 Sunny 90 32.2 50 10.2 26 26 SE 13 20 29.89 1012 10 16 N/A
6:35 pm 18:35 Sunny 89 31.8 49 9.5 25 25 SE 10 17 29.89 1012 10 16 N/A
6:55 pm 18:55 Sunny 89 31.5 49 9.5 26 26 SSE 9 15 29.89 1012 10 16 N/A
7:15 pm 19:15 Sunny 88 31.2 51 10.3 27 27 SSE 8 13 29.89 1012 10 16 N/A
7:35 pm 19:35 Sunny 87 30.7 50 10 28 28 SSE 9 15 29.89 1012 10 16 N/A
7:55 pm 19:55 Sunny 86 29.9 51 10.5 30 30 SSE 7 11 29.90 1012 10 16 N/A
8:15 pm 20:15 Sunny 84 29 52 11.1 33 33 SSE 7 11 29.90 1013 10 16 N/A
8:35 pm 20:35 Sunny 82 27.5 52 11.2 36 36 SSE 7 11 29.92 1013 10 16 N/A
8:55 pm 20:55 Sunny 78 25.7 52 11.2 40 40 SE 7 11 29.93 1014 10 16 N/A
9:15 pm 21:15 Clear 76 24.2 52 11.1 44 44 SE 6 9 29.94 1014 10 16 N/A
9:35 pm 21:35 Clear 74 23.1 53 11.5 48 48 SE 7 11 29.95 1014 10 16 N/A
9:55 pm 21:55 Clear 73 22.5 53 11.5 50 50 SE 6 9 29.97 1015 10 16 N/A
10:15 pm 22:15 Clear 73 22.7 52 11.1 48 48 SSE 3 6 29.97 1015 10 16 N/A
10:35 pm 22:35 Clear 73 22.9 52 11 47 47 SSE 6 9 29.98 1015 10 16 N/A
10:55 pm 22:55 Clear 72 22.1 52 11.1 50 50 S 5 7 29.99 1016 10 16 N/A
11:15 pm 23:15 Clear 71 21.9 52 11 50 50 SSE 5 7 29.99 1016 10 16 N/A
11:35 pm 23:35 Clear 70 20.9 53 11.5 55 55 SSE 5 7 30.00 1016 10 16 N/A
11:55 pm 23:55 Clear 70 21 53 11.6 55 55 S 3 6 30.01 1016 10 16 N/A

Powered by AerisWeather